Location: Marcé
(47.5801°N, 0.3280°W)
Time: 15:54:13
(UTC+01:00)

Explorer 7 - Pass Details

Date: 02 December 2021
Orbit: 483 x 674 km, 50.3° (Epoch: 20 January)

Event Time Altitude Azimuth Distance (km) Brightness Sun altitude
Rises 09:24:08 0° 264° (W) 2,738 10.0 6.4°
Reaches altitude 10° 09:26:28 10° 268° (W) 1,810 9.1 6.7°
Maximum altitude 09:30:32 63° 350° (N) 587 6.9 7.2°
Drops below altitude 10° 09:34:23 10° 72° (ENE) 1,717 9.8 7.6°
Sets 09:36:33 0° 76° (ENE) 2,582 10.7 7.9°
